DW8780 Weather Reports


Display with metric or nautical units.
time (UTC)temp
F
wind
direction
speed
MPH
gust
MPH
rain 1hr
in
rain 24hr
in
rain mn
in
humidity
%
barometer
mb
20260506073503 65 344 4.0 12.0 0.00 0.00 0.00 72 1012.9
20260506073003 65 339 4.0 14.0 0.00 0.00 0.00 72 1013.0
20260506072502 65 349 3.0 18.0 0.00 0.00 0.00 73 1013.0
20260506072003 66 353 3.0 18.0 0.00 0.00 0.00 73 1012.9
20260506071502 66 356 3.0 14.0 0.00 0.00 0.00 73 1012.9
20260506071002 66 353 4.0 15.0 0.00 0.00 0.00 73 1012.9
20260506070503 66 354 4.0 15.0 0.00 0.00 0.00 73 1013.0
20260506062503 66 1 5.0 14.0 0.00 0.00 0.00 72 1013.2
20260506062002 66 1 5.0 12.0 0.00 0.00 0.00 72 1013.1
20260506061502 67 357 5.0 17.0 0.00 0.00 0.00 72 1013.2
20260506061004 67 357 5.0 17.0 0.00 0.00 0.00 72 1013.2
20260506060502 67 358 4.0 13.0 0.00 0.00 0.00 71 1013.2
20260506051003 68 355 5.0 18.0 0.00 0.00 0.00 69 1013.4
20260506050502 68 356 6.0 18.0 0.00 0.00 0.00 69 1013.6
20260506045003 68 3 5.0 21.0 0.00 0.00 0.00 69 1013.6
20260506044502 69 4 6.0 21.0 0.00 0.00 0.00 69 1013.6
20260506043503 69 353 5.0 16.0 0.00 0.00 0.00 69 1013.7
20260506043003 69 359 6.0 17.0 0.00 0.00 0.00 69 1013.7
20260506041502 69 354 5.0 18.0 0.00 0.00 0.00 69 1013.7
20260506041002 69 359 5.0 15.0 0.00 0.00 0.00 69 1013.5
20260506040502 69 359 5.0 15.0 0.00 0.00 0.00 69 1013.3
20260506040003 69 357 6.0 18.0 0.00 0.00 0.00 69 1013.4
20260506035002 69 358 6.0 20.0 0.00 0.00 0.00 69 1013.4
20260506034503 69 358 6.0 20.0 0.00 0.00 0.00 69 1013.4
20260506034002 69 1 6.0 17.0 0.00 0.00 0.00 69 1013.3
20260506033503 69 359 6.0 17.0 0.00 0.00 0.00 69 1013.3
20260506033003 69 3 6.0 18.0 0.00 0.00 0.00 69 1013.3
20260506032502 69 5 5.0 18.0 0.00 0.00 0.00 69 1013.4
20260506032003 69 3 5.0 13.0 0.00 0.00 0.00 68 1013.4
20260506031004 69 359 6.0 16.0 0.00 0.00 0.00 68 1013.5
20260506030502 70 358 5.0 14.0 0.00 0.00 0.00 68 1013.5
20260506030004 70 1 5.0 16.0 0.00 0.00 0.00 68 1013.5
20260506025503 70 359 6.0 16.0 0.00 0.00 0.00 68 1013.5
20260506025002 70 1 7.0 14.0 0.00 0.00 0.00 68 1013.5
20260506024502 70 2 6.0 14.0 0.00 0.00 0.00 68 1013.5
20260506024003 70 2 6.0 13.0 0.00 0.00 0.00 68 1013.6
20260506023502 70 4 6.0 15.0 0.00 0.00 0.00 68 1013.4
20260506022003 70 5 6.0 18.0 0.00 0.00 0.00 68 1013.6
20260506021503 70 6 7.0 19.0 0.00 0.00 0.00 68 1013.5
20260506015503 70 2 6.0 23.0 0.00 0.00 0.00 67 1013.4
20260506015003 70 2 6.0 11.0 0.00 0.00 0.00 67 1013.4
20260506014004 70 358 5.0 15.0 0.00 0.00 0.00 66 1013.4
20260506013503 70 359 6.0 21.0 0.00 0.00 0.00 65 1013.3
20260506012503 70 3 5.0 17.0 0.00 0.00 0.00 65 1013.1
20260506012002 70 4 6.0 13.0 0.00 0.00 0.00 65 1013.1
20260506011503 71 4 6.0 13.0 0.00 0.00 0.00 64 1012.9
20260506010502 71 7 6.0 16.0 0.00 0.00 0.00 63 1012.9
20260506010003 71 5 6.0 16.0 0.00 0.00 0.00 62 1012.9
20260506005004 72 2 7.0 15.0 0.00 0.00 0.00 61 1012.9
20260506004503 72 3 6.0 13.0 0.00 0.00 0.00 60 1012.7
20260506004003 72 5 6.0 15.0 0.00 0.00 0.00 60 1012.6
20260506003502 72 6 6.0 18.0 0.00 0.00 0.00 59 1012.5
20260506003003 72 3 6.0 18.0 0.00 0.00 0.00 58 1012.5
20260506002502 72 3 6.0 17.0 0.00 0.00 0.00 58 1012.3
20260506001502 73 3 6.0 13.0 0.00 0.00 0.00 56 1012.3
20260506001003 73 2 6.0 14.0 0.00 0.00 0.00 55 1012.1
20260506000503 74 2 6.0 14.0 0.00 0.00 0.00 55 1012.1
20260505235003 74 7 6.0 18.0 0.00 0.00 0.00 53 1012.1
20260505234503 75 2 7.0 18.0 0.00 0.00 0.00 52 1012.1
20260505234002 75 3 8.0 22.0 0.00 0.00 0.00 52 1012.2
20260505233503 75 5 8.0 22.0 0.00 0.00 0.00 51 1012.1
20260505233003 75 4 7.0 18.0 0.00 0.00 0.00 51 1012.1
20260505232502 75 2 7.0 16.0 0.00 0.00 0.00 51 1012.1
20260505232003 76 1 7.0 16.0 0.00 0.00 0.00 50 1012.1
20260505231003 76 3 8.0 18.0 0.00 0.00 0.00 49 1012.1
20260505230502 76 4 8.0 18.0 0.00 0.00 0.00 49 1012.1
20260505230003 77 4 6.0 12.0 0.00 0.00 0.00 48 1012.1
20260505225503 77 358 6.0 15.0 0.00 0.00 0.00 47 1012.1
20260505224502 77 10 8.0 19.0 0.00 0.00 0.00 46 1012.0
20260505224003 78 1 7.0 19.0 0.00 0.00 0.00 46 1012.0
20260505223503 78 3 8.0 26.0 0.00 0.00 0.00 45 1012.1
20260505223003 78 2 9.0 26.0 0.00 0.00 0.00 45 1012.0
20260505222503 78 359 7.0 24.0 0.00 0.00 0.00 44 1012.0
20260505222003 78 1 8.0 29.0 0.00 0.00 0.00 44 1012.0
20260505221503 79 2 9.0 29.0 0.00 0.00 0.00 43 1012.0
20260505221003 79 2 7.0 20.0 0.00 0.00 0.00 43 1011.8
20260505220502 79 359 9.0 21.0 0.00 0.00 0.00 42 1011.8
20260505220003 80 1 9.0 21.0 0.00 0.00 0.00 40 1011.8
20260505215502 80 4 7.0 21.0 0.00 0.00 0.00 41 1011.7
20260505215003 80 359 7.0 20.0 0.00 0.00 0.00 40 1011.6
20260505214002 80 2 10.0 27.0 0.00 0.00 0.00 38 1011.7
20260505213504 80 2 8.0 27.0 0.00 0.00 0.00 38 1011.7
20260505213002 81 1 9.0 21.0 0.00 0.00 0.00 39 1011.6
20260505212502 81 2 9.0 34.0 0.00 0.00 0.00 39 1011.6
20260505212003 81 3 9.0 37.0 0.00 0.00 0.00 39 1011.3
20260505211502 81 359 8.0 37.0 0.00 0.00 0.00 38 1011.5
20260505211003 81 357 7.0 21.0 0.00 0.00 0.00 39 1011.5
20260505210502 81 358 7.0 21.0 0.00 0.00 0.00 38 1011.6
20260505205002 81 357 7.0 20.0 0.00 0.00 0.00 37 1011.7
20260505204503 81 359 7.0 21.0 0.00 0.00 0.00 37 1011.7
20260505204004 82 357 8.0 23.0 0.00 0.00 0.00 38 1011.8
20260505203004 82 355 6.0 24.0 0.00 0.00 0.00 37 1011.9
20260505202502 82 357 6.0 24.0 0.00 0.00 0.00 37 1011.8
20260505202003 82 350 6.0 19.0 0.00 0.00 0.00 37 1012.0
20260505201503 82 345 7.0 19.0 0.00 0.00 0.00 36 1012.0
20260505201003 82 342 6.0 17.0 0.00 0.00 0.00 38 1012.0
20260505200007 81 352 8.0 24.0 0.00 0.00 0.00 40 1012.4
20260505194004 81 353 7.0 21.0 0.00 0.00 0.00 40 1012.4
20260505193504 81 356 6.0 21.0 0.00 0.00 0.00 40 1012.6
20260505193003 81 357 6.0 20.0 0.00 0.00 0.00 42 1012.6
20260505192503 81 356 7.0 20.0 0.00 0.00 0.00 42 1012.6
20260505192002 81 353 6.0 16.0 0.00 0.00 0.00 41 1012.6
20260505190504 81 356 6.0 18.0 0.00 0.00 0.00 42 1012.9
20260505190004 81 2 6.0 19.0 0.00 0.00 0.00 42 1013.0
20260505185503 81 358 6.0 19.0 0.00 0.00 0.00 41 1012.9
20260505185003 81 356 7.0 26.0 0.00 0.00 0.00 42 1012.9
20260505184002 81 358 8.0 23.0 0.00 0.00 0.00 41 1012.9
20260505183502 82 355 6.0 19.0 0.00 0.00 0.00 41 1013.0
20260505183003 81 350 5.0 21.0 0.00 0.00 0.00 42 1012.9
20260505182503 81 353 5.0 21.0 0.00 0.00 0.00 42 1013.0
20260505182002 81 354 5.0 21.0 0.00 0.00 0.00 42 1012.9
20260505181003 81 345 5.0 17.0 0.00 0.00 0.00 41 1013.1
20260505180502 82 349 5.0 17.0 0.00 0.00 0.00 42 1013.2
20260505180003 81 349 5.0 13.0 0.00 0.00 0.00 46 1013.4
20260505175502 81 352 5.0 18.0 0.00 0.00 0.00 43 1013.3
20260505175002 82 357 5.0 18.0 0.00 0.00 0.00 43 1013.3
20260505174502 81 356 4.0 13.0 0.00 0.00 0.00 45 1013.4
20260505174002 81 356 3.0 13.0 0.00 0.00 0.00 45 1013.3
20260505173503 80 354 4.0 13.0 0.00 0.00 0.00 43 1013.5
20260505173002 80 353 5.0 15.0 0.00 0.00 0.00 45 1013.6
20260505172503 80 351 5.0 17.0 0.00 0.00 0.00 41 1013.6
20260505172002 81 355 4.0 17.0 0.00 0.00 0.00 43 1013.7
20260505171502 81 352 4.0 10.0 0.00 0.00 0.00 45 1013.7
20260505171003 80 346 4.0 11.0 0.00 0.00 0.00 45 1013.7
20260505170503 80 349 4.0 11.0 0.00 0.00 0.00 44 1013.8
20260505170004 80 351 4.0 10.0 0.00 0.00 0.00 45 1013.8
20260505165502 80 350 4.0 12.0 0.00 0.00 0.00 47 1013.7
20260505165002 80 350 5.0 14.0 0.00 0.00 0.00 47 1013.8
20260505164503 80 352 4.0 14.0 0.00 0.00 0.00 45 1014.0
20260505164003 80 350 4.0 9.0 0.00 0.00 0.00 46 1013.9
20260505163502 79 349 4.0 13.0 0.00 0.00 0.00 48 1014.0
20260505163003 79 345 3.0 13.0 0.00 0.00 0.00 46 1014.0
20260505162503 79 346 3.0 9.0 0.00 0.00 0.00 48 1014.1
20260505161502 78 354 4.0 11.0 0.00 0.00 0.00 47 1014.2
20260505160503 77 352 5.0 17.0 0.00 0.00 0.00 50 1014.3
20260505153003 76 351 4.0 18.0 0.00 0.00 0.00 50 1014.5
20260505152504 76 1 4.0 18.0 0.00 0.00 0.00 54 1014.5
20260505152003 75 357 5.0 19.0 0.00 0.00 0.00 54 1014.5
20260505151502 76 354 5.0 19.0 0.00 0.00 0.00 51 1014.4
20260505151003 76 356 5.0 14.0 0.00 0.00 0.00 52 1014.3
20260505150503 76 356 5.0 14.0 0.00 0.00 0.00 52 1014.3
20260505140503 72 346 4.0 16.0 0.00 0.00 0.00 58 1014.5
20260505125003 69 332 4.0 8.0 0.00 0.00 0.00 61 1014.2
20260505124502 69 337 3.0 7.0 0.00 0.00 0.00 63 1014.3
20260505123502 68 350 2.0 9.0 0.00 0.00 0.00 66 1014.2
20260505123003 68 351 2.0 14.0 0.00 0.00 0.00 65 1014.2
20260505122002 67 348 3.0 7.0 0.00 0.00 0.00 67 1014.1
20260505121503 66 355 3.0 7.0 0.00 0.00 0.00 67 1014.1
20260505121002 66 356 3.0 11.0 0.00 0.00 0.00 68 1014.1
20260505120503 65 340 3.0 11.0 0.00 0.00 0.00 71 1014.0
20260505120004 64 339 3.0 10.0 0.00 0.00 0.00 72 1014.0
20260505114504 63 348 3.0 11.0 0.00 0.00 0.00 74 1014.0
20260505114002 63 344 3.0 11.0 0.00 0.00 0.00 73 1013.9
20260505113503 63 342 2.0 7.0 0.00 0.00 0.00 74 1013.9
20260505113003 62 345 2.0 6.0 0.00 0.00 0.00 75 1013.9
20260505112502 62 350 2.0 6.0 0.00 0.00 0.00 76 1013.9
20260505112003 62 355 3.0 12.0 0.00 0.00 0.00 76 1014.0
20260505111502 61 356 3.0 12.0 0.00 0.00 0.00 76 1013.9
20260505110503 61 353 2.0 8.0 0.00 0.00 0.00 77 1013.9
20260505101503 61 356 2.0 8.0 0.00 0.00 0.00 77 1013.5
20260505101002 61 352 2.0 8.0 0.00 0.00 0.00 76 1013.5
20260505100503 61 344 2.0 9.0 0.00 0.00 0.00 76 1013.6
20260505100002 61 345 2.0 9.0 0.00 0.00 0.00 76 1013.5
20260505095503 61 342 2.0 8.0 0.00 0.00 0.00 76 1013.5
20260505095003 61 342 3.0 8.0 0.00 0.00 0.00 76 1013.4
20260505094002 61 341 2.0 9.0 0.00 0.00 0.00 76 1013.5
20260505093502 61 340 2.0 9.0 0.00 0.00 0.00 76 1013.4
20260505093002 61 344 2.0 7.0 0.00 0.00 0.00 76 1013.5
20260505092502 61 349 2.0 7.0 0.00 0.00 0.00 76 1013.4
20260505092002 61 351 2.0 6.0 0.00 0.00 0.00 76 1013.5
20260505091003 61 330 2.0 5.0 0.00 0.00 0.00 76 1013.4
20260505090503 61 326 2.0 5.0 0.00 0.00 0.00 76 1013.4
20260505085003 62 334 2.0 8.0 0.00 0.00 0.00 75 1013.3
20260505084502 62 330 2.0 6.0 0.00 0.00 0.00 75 1013.3
20260505084003 62 328 2.0 9.0 0.00 0.00 0.00 75 1013.2
20260505083002 62 337 2.0 6.0 0.00 0.00 0.00 74 1013.3
20260505082503 62 335 2.0 4.0 0.00 0.00 0.00 74 1013.3
20260505082003 62 344 2.0 4.0 0.00 0.00 0.00 73 1013.4
20260505081503 62 356 2.0 8.0 0.00 0.00 0.00 73 1013.4
20260505081003 63 358 3.0 8.0 0.00 0.00 0.00 73 1013.3
20260505080503 63 357 4.0 13.0 0.00 0.00 0.00 72 1013.3
20260505080003 63 355 3.0 13.0 0.00 0.00 0.00 72 1013.4